Flag for Kiribati Weather past 2 weeks in Kiritimati, Christmas Island, Kiribati

Now
82 °F

Overcast.


Feels Like: 91 °F
Forecast: 82 / 86 °F
Wind: 3 mph from North

Location: Christmas / Cassidy

Current Time: Sep 5, 2015 at 10:40:59 PM

Latest Report: Sep 5, 2015 at 9:00 PM


Visibility: N/A

Pressure: 29.83 "Hg

Humidity: 84%

Dew point: 77 °F

Location of KiritimatiLocation

Historic Weather in Kiritimati — Graph

°F

Kiritimati temperature yesterday

Maximum temperature yesterday: 90 °F (at 3:00 PM)
Minimum temperature yesterday: 79 °F (at 11:00 PM)
Average temperature yesterday: 84 °F

Past Weeks' High & Low Weather Summary

 TemperatureHumidityPressure
High90 °F (Aug 22, 12:00 PM)100% (Aug 28, 9:00 AM)29.89 "Hg (Aug 28, 9:00 AM)
Low77 °F (Sep 1, 11:00 PM)59% (Aug 22, 12:00 PM)27.12 "Hg (Aug 27, 12:00 AM)
Average84 °F76%29.80 "Hg
* Reported Aug 21 9:00 PM — Sep 5 9:00 PM, Kiritimati, Weather by CustomWeather, © 2015

Note: Actual official high and low records may vary slightly from our data, if they occured in-between our weather recording intervals... More about our weather records

Advertising

Kiritimati weather history for previous 24 hours

 ConditionsComfort  
Time TempWeatherWind HumidityBarometerVisibility
9:00 PM
Sat, Sep 5
82 °FOvercast.3 mph84%29.83 "HgN/A
6:00 PM82 °FPartly cloudy.5 mph79%29.80 "HgN/A
4:00 PM84 °FBroken clouds.9 mph79%29.74 "HgN/A
3:00 PM84 °FBroken clouds.12 mph79%29.83 "HgN/A
2:00 PM86 °FPartly sunny.7 mph75%29.77 "HgN/A
1:00 PM88 °FBroken clouds.13 mph70%29.80 "HgN/A
12:00 PM88 °FScattered clouds.7 mph66%29.83 "HgN/A
11:00 AM88 °FScattered clouds.14 mph66%29.83 "HgN/A
10:00 AM86 °FScattered clouds.8 mph70%29.83 "HgN/A
9:00 AM84 °FPassing clouds.9 mph74%29.83 "HgN/A
8:00 AM84 °FScattered clouds.9 mph74%29.80 "HgN/A
4:00 AM79 °FScattered showers. Partly cloudy.7 mph94%29.77 "HgN/A
3:00 AM79 °FScattered showers. Partly cloudy.5 mph94%29.80 "HgN/A
2:00 AM79 °FScattered showers. Partly cloudy.2 mph94%29.83 "HgN/A
1:00 AM77 °FScattered showers. Passing clouds.2 mph94%29.83 "HgN/A
12:00 AM81 °FMostly cloudy.7 mph89%29.89 "HgN/A
11:00 PM
Fri, Sep 4
79 °FPassing clouds.7 mph89%29.89 "HgN/A
10:00 PM84 °FPartly cloudy.2 mph74%29.80 "HgN/A
Weather by CustomWeather, © 2015

See weather overviewHow to use our weather pages